Regional Weather Roundup
Issued by NWS Midland/Odessa, TX

Skip options and go directly to product.
Home | Oldest Version | Previous Version | Current Version | All | Text Only | Save Text | Print | Product List | Glossary Off

Skip product version selection by date and time.   

333
ASUS44 KMAF 280710
RWRMAF
MIDLAND AREA WEATHER ROUNDUP
NATIONAL WEATHER SERVICE MIDLAND TX
200 AM CDT TUE JUN 28 2016

...IN SOUTHWEST TEXAS AND SOUTHEAST NEW MEXICO...

CITY           SKY/WX    TMP DP  RH WIND       PRES   REMARKS
ALPINE         CLOUDY    68  65  88 SE6       30.30S
ANDREWS        MOCLDY    71  60  69 CALM      30.22F
ARTESIA        PTCLDY    72  68  88 SE7       30.24S
BIG SPRING     CLOUDY    75  61  60 CALM      30.20F
CARLSBAD       MOCLDY    71  66  84 CALM      30.21S
DRYDEN           N/A     74  69  85 NE5       30.12S
FORT STOCKTON  CLOUDY    73  67  81 E7        30.17F
GUAD PASS      FOG       64  64 100 E22       30.30S VSB 1/4
HOBBS          PTCLDY    66  64  94 E6        30.26S
MARFA          CLOUDY   N/A N/A N/A NE6       30.27F
MIDLAND AIRPK  CLOUDY    74  66  75 CALM      30.20F
MIDLAND INTL   CLOUDY    74  65  73 NE3       30.19F
ODESSA         CLOUDY    73  65  75 E7        30.20F
PECOS          CLOUDY    73  68  86 E9        30.16S
PRESIDIO       NOT AVBL
SEMINOLE       CLOUDY    69  58  66 CALM      30.24F
SNYDER           N/A     74  61  63 N5        30.19S
WINK           CLOUDY    72  67  84 E7        30.16F
$$
...OTHER STATIONS IN TEXAS...

CITY           SKY/WX    TMP DP  RH WIND       PRES   REMARKS
ABILENE        CLEAR     76  66  71 S5        30.14F
AMARILLO       CLEAR     71  59  65 S7        30.25F
AUSTIN         CLEAR     76  71  85 S3        30.05S
BROWNSVILLE    CLEAR     79  76  90 SE5       30.03F
CORPUS CHRISTI MOCLDY    76  73  91 S3        30.03F
DALLAS FTW     MOCLDY    82  71  69 NW7       30.06F
DEL RIO        CLEAR     79  67  66 E7        30.05F
EL PASO        PTCLDY    75  61  61 E12       30.20R
HOUSTON INT    CLOUDY    80  75  84 CALM      30.02F
LUBBOCK        CLOUDY    71  58  63 CALM      30.24S
SAN ANGELO     CLOUDY    76  72  87 S3        30.12F
SAN ANTONIO    PTCLDY    80  69  69 S7        30.08S
WACO           CLEAR     78  70  76 CALM      30.06F
WICHITA FALLS  NOT AVBL
$$
...OTHER LOCATIONS IN NEW MEXICO...

CITY           SKY/WX    TMP DP  RH WIND       PRES   REMARKS
ALAMAGORDO     CLOUDY    73  57  56 W12       30.21R
ALBUQUERQUE    PTCLDY    75  50  41 CALM      30.32R
CANNON AFB     CLEAR     65  62  91 CALM      30.30S
CLOVIS         CLEAR     64  55  72 S5        30.30S
HOLLOMAN AFB   CLOUDY    75  59  58 W10       30.19R
ROSWELL        CLEAR     70  62  76 S5        30.25S
RUIDOSO          N/A     59  57  94 SE7       30.44S
SANTA FE       CLOUDY    63  50  62 E6        30.40S
TRUTH OR CONSE MOCLDY    76  51  41 CALM      30.25R
TUCUMCARI      CLEAR     70  59  68 S6        30.27S
$$

USA.gov is the U.S. government's official web portal to all federal, state and local government web resources and services.